User: anonymous   Login
Location: Unspecified
(0.0000°N, 0.0000°E)
Time: 04:12:59
(UTC+02:00)
Language:

ARIANE 5 R/B - Orbit

View from above orbital plane
View from above orbital plane
View from above satellite
View from above satellite

Ground track
Ground track

The orbit data is extracted from the following two-line orbital elements,

1 28379U 04027B   15187.27240057 -.00000030  00000-0 -11483-2 0  9995
2 28379 006.6350 210.6963 7278085 317.5285 304.1526 02.07922716 83329
Epoch (UTC): 06 July 2015 06:32:15
Eccentricity: 0.7278085
inclination: 6.6350°
perigee height: 680 km
apogee height: 38423 km
right ascension of ascending node: 210.6963°
argument of perigee: 317.5285°
revolutions per day: 2.07922716
mean anomaly at epoch: 304.1526°
orbit number at epoch: 8332

The dashed part of the orbit path shows where the satellite is in the earth's shadow,  

DLR